Location: Newark
(14.1000°N, 87.2167°W)
Time: 18:18:06
(UTC+00:00)

Starlink (trailer) - Visible Passes

Search period start: 20 August 2019 00:00
Search period end: 30 August 2019 00:00
Orbit: 549 x 550 km, 53.0° (Epoch: 19 August)

Date Brightness Start Highest point End Pass type
(mag) Time Alt. Az. Time Alt. Az. Time Alt. Az.
24 Aug 6.6 02:27:36 10° NNW 02:27:46 11° NNW 02:27:46 11° NNW visible
25 Aug 6.3 02:22:01 10° NNW 02:22:54 16° NNW 02:22:54 16° NNW visible
26 Aug 5.9 02:16:36 10° NW 02:18:09 22° NW 02:18:09 22° NW visible
27 Aug 5.7 00:33:48 10° NNE 00:35:38 13° NE 00:37:28 10° ENE visible
27 Aug 5.7 02:11:21 10° NW 02:13:31 26° WNW 02:13:31 26° WNW visible
28 Aug 5.2 00:27:18 10° N 00:30:16 19° NE 00:33:13 10° E visible
28 Aug 5.7 02:06:19 10° WNW 02:09:01 23° WSW 02:09:01 23° WSW visible
29 Aug 4.7 00:21:17 10° N 00:24:52 28° NE 00:28:26 10° ESE visible
29 Aug 6.1 02:01:39 10° W 02:04:11 16° WSW 02:04:39 16° SW visible
